Location: ???????
(56.2167°N, 38.0500°E)
Time: 03:47:29
(UTC+00:00)

Cosmos 1459 Rocket - Pass Details

Date: 19 May 2025
Orbit: 936 x 998 km, 83.0° (Epoch: 15 June)

Event Time Altitude Azimuth Distance (km) Brightness Sun altitude
Rises 21:08:53 0° 348° (NNW) 3,621 8.9 -13.7°
Reaches altitude 10° 21:11:25 10° 353° (N) 2,678 7.8 -13.8°
Maximum altitude 21:17:28 61° 73° (ENE) 1,082 4.3 -13.8°
Enters shadow 21:22:37 15° 151° (SSE) 2,353 5.5 -13.8°
